TimeMST,TemperatureF,Dew PointF,Humidity,Sea Level PressureIn,VisibilityMPH,Wind Direction,Wind SpeedMPH,Gust SpeedMPH,PrecipitationIn,Events,Conditions,WindDirDegrees,DateUTC
12:53 AM,42.1,23.0,47,29.84,10.0,WNW,12.7,-,N/A,,Clear,290,2012-11-08 07:53:00
1:53 AM,41.0,23.0,49,29.79,10.0,West,12.7,-,N/A,,Clear,280,2012-11-08 08:53:00
2:53 AM,41.0,23.0,49,29.79,10.0,West,16.1,-,N/A,,Clear,270,2012-11-08 09:53:00
3:53 AM,41.0,21.0,45,29.80,10.0,West,13.8,-,N/A,,Clear,270,2012-11-08 10:53:00
4:53 AM,43.0,19.0,38,29.82,10.0,West,16.1,-,N/A,,Clear,270,2012-11-08 11:53:00
5:53 AM,43.0,19.0,38,29.84,10.0,SW,9.2,-,N/A,,Clear,230,2012-11-08 12:53:00
6:53 AM,44.1,18.0,35,29.87,10.0,West,18.4,-,N/A,,Clear,270,2012-11-08 13:53:00
7:53 AM,48.0,19.0,32,29.89,10.0,West,16.1,-,N/A,,Clear,270,2012-11-08 14:53:00
8:53 AM,57.9,19.9,23,29.87,10.0,WNW,8.1,-,N/A,,Clear,290,2012-11-08 15:53:00
9:53 AM,64.9,19.9,18,29.86,10.0,WSW,4.6,-,N/A,,Clear,240,2012-11-08 16:53:00
10:53 AM,71.1,19.9,14,29.83,10.0,West,6.9,-,N/A,,Clear,260,2012-11-08 17:53:00
11:53 AM,72.0,18.0,13,29.80,10.0,Variable,3.5,-,N/A,,Clear,0,2012-11-08 18:53:00
12:53 PM,75.0,18.0,12,29.75,10.0,Variable,4.6,-,N/A,,Clear,0,2012-11-08 19:53:00
1:53 PM,75.0,19.0,12,29.75,10.0,ESE,10.4,-,N/A,,Clear,110,2012-11-08 20:53:00
2:53 PM,73.0,19.9,14,29.73,10.0,SE,9.2,-,N/A,,Clear,140,2012-11-08 21:53:00
3:53 PM,71.1,19.9,14,29.73,10.0,ESE,9.2,-,N/A,,Clear,120,2012-11-08 22:53:00
4:53 PM,66.0,21.0,18,29.73,10.0,ESE,10.4,-,N/A,,Clear,120,2012-11-08 23:53:00
5:53 PM,63.0,23.0,22,29.74,10.0,ESE,12.7,-,N/A,,Clear,110,2012-11-09 00:53:00
6:53 PM,59.0,24.1,26,29.75,10.0,ESE,12.7,-,N/A,,Clear,110,2012-11-09 01:53:00
7:53 PM,55.9,27.0,33,29.74,10.0,East,10.4,-,N/A,,Clear,90,2012-11-09 02:53:00
8:53 PM,53.1,28.9,40,29.71,10.0,East,11.5,-,N/A,,Clear,90,2012-11-09 03:53:00
9:53 PM,50.0,28.9,44,29.70,10.0,East,10.4,-,N/A,,Clear,100,2012-11-09 04:53:00
10:53 PM,46.9,30.0,52,29.68,10.0,ESE,9.2,-,N/A,,Clear,120,2012-11-09 05:53:00
11:53 PM,44.1,30.0,58,29.68,10.0,East,4.6,-,N/A,,Clear,90,2012-11-09 06:53:00